Tracking 18987 objects as of 25-Feb-2018
HD Live streaming from Space Station
objects crossing your sky now

COSMOS 1052

Track COSMOS 1052 now!
10-day predictions
COSMOS 1052 is classified as:


NORAD ID: 11129
Int'l Code: 1978-109B
Perigee: 1,418.0 km
Apogee: 1,494.6 km
Inclination: 74.0 °
Period: 114.9 minutes
Semi major axis: 7827 km
RCS: 0.7004 m2 (medium)
Launch date: December 5, 1978
Source: Commonwealth of Independent States (former USSR) (CIS)
Launch site: PLESETSK MISSILE AND SPACE COMPLEX (PKMTR)
aabbcc
Your satellite tracking list
Your tracking list is empty




NASA's NSSDC Master Catalog

Two Line Element Set (TLE):
1 11129U 78109B   18056.74963919  .00000007  00000-0  14230-3 0  9997
2 11129  74.0136 253.6313 0048930  56.4728  24.0596 12.53679379795375
Source of the keplerian elements: AFSPC